カタログに戻る

SL-8 R/B

運用中PO
NORAD 20528·ROCKET BODY·🇷🇺 Russia

打ち上げ Mar 20, 1990 から Plesetsk Cosmodrome

Loading…

次のパス (今後24時間)

TLE

最新Source: Space-Track

元期: Sep 14, 2026, 07:32 UTC

1 20528U 90023B   26257.31435228 -.00000049  00000-0 -68521-4 0  9992
2 20528  82.9316  88.7324 0031931   4.1648 169.1717 13.73158074828021

AllMySatでSL-8 R/Bをリアルタイム追跡

Download on the App Store